Location: Mary A Oil Field
(38.5606°N, 98.9545°W)
Time: 12:41:22
(UTC+00:00)

CENTAUR R/B - Pass Details

Date: 20 January 2020
Orbit: 766 x 1422 km, 63.5° (Epoch: 07 February)

Event Time Altitude Azimuth Distance (km) Brightness Sun altitude
Exits shadow 11:38:55 10° 341° (NNW) 3,228 5.0 -25.4°
Maximum altitude 11:45:58 33° 43° (NE) 2,115 4.5 -24.0°
Drops below altitude 10° 11:53:36 10° 105° (ESE) 3,505 6.5 -22.6°
Sets 11:56:59 0° 114° (ESE) 4,492 7.3 -21.9°
